Welcome to the New NWS' Forecast!
Most changes are behind the scenes, but click here for differences you might notice.
Latest weather observations around

South Lake Tahoe, Lake Tahoe Airport (KTVL)

Using English Units (Switch to International System of Units)
Date/ Time (PST) Wind (mph) Vis. (mi) Weather Sky Cond. Temp (°F) Rel. Humidity Wind Chill (°F) Heat Index (°F) Pressure Precip. (in)
Air Dwpt 6 hour Altimeter (inHg) Sea level (inHg) 1 hr 3 hr 6 hr
Max Min
Nov 17 23:53 S 3 10 Clear CLR 24 21     88% 20     30.3      
Nov 17 22:53 Calm 10 Clear CLR 25 22     88%       30.29      
Nov 17 21:53 S 5 10 Clear CLR 26 23     88% 20   30.27 30.29      
Nov 17 20:53 Calm 10 Clear CLR 27 24     89%       30.29      
Nov 17 19:53 Calm 10 Clear CLR 28 24     85%       30.26      
Nov 17 18:53 Calm 10 Clear CLR 28 24     85%       30.24      
Nov 17 17:53 Calm 10 Clear CLR 30 24     78%       30.2      
Nov 17 16:53 Calm 10 Clear CLR 31 24     75%       30.18      
Nov 17 15:53 Calm 10 Clear CLR 37 19     48%       30.13      
Nov 17 14:53 NNE 6 10 Clear CLR 40 17     39% 36     30.11      
Nov 17 13:53 NE 7 10 Clear CLR 40 17     39% 35     30.1      
Nov 17 12:53 6 10 Mostly Cloudy BKN047 40 21     46% 36     30.1      
Nov 17 11:53 SSE 8 10 Partly Cloudy SCT038 38 21     50% 32     30.1      
Nov 17 10:53 S 9 10 Mostly Cloudy BKN032 36 23     59% 29     30.11      
Nov 17 09:53 S 13 10 Clear CLR 35 25     66% 26     30.08     0
Nov 17 08:53 S 13 10 Cloudy SCT037 OVC048 33 26     75% 24     30.04 0    
Nov 17 08:14 S 10 10 Partly Cloudy SCT025 SCT036 33 23     66% 25       0    
Nov 17 08:06 S 8 5 Light Snow BKN025 BKN034 32 24     72% 25       0    
Nov 17 07:53 7 10 Mostly Cloudy SCT031 BKN039 33 22     63% 27     30 0    
Nov 17 07:24 7 10 Mostly Clear FEW013 33 23     66% 27       0    
Nov 17 07:14 SW 9 9 Mostly Cloudy SCT017 BKN028 BKN037 34 24     67% 27       0    
Nov 17 07:07 3 3 Light Snow BKN017 BKN028 BKN037 33 25     72% 30       0    
Nov 17 06:55 SSW 14 1.75 Light Snow BKN021 BKN030 OVC038 33 27     78% 23       0    
Nov 17 06:53   3 Light Snow BKN024 BKN030 OVC038 34 26     72%       29.93 0 0  
Nov 17 05:53   8 Light Snow BKN021 OVC031 35 28     75%     29.89 29.84 0    
Nov 17 05:37   4 Light Snow OVC019 36 30     79%     29.9   0    
Nov 17 05:16 SSW 10 2.5 Light Snow OVC019 35 30     82% 27   29.9   0    
Nov 17 04:53 SSW 10 9 Mostly Cloudy BKN021 BKN028 37 28     70% 30   29.88 29.83 0    
Nov 17 04:25 SSW 13 5 Light Snow and Fog/Mist OVC019 36 32     85% 27       0    
Nov 17 04:12   2.5 Light Snow BKN021 OVC027 36 31     82%     29.87   0    
Nov 17 03:53 SSW 15 8 Unknown Precipitation BKN021 OVC030 38 30     73% 29     29.81 0   0
Nov 17 03:40   4 Light Snow OVC021 36 31     82%         0    
Nov 17 03:28   6 Light Snow and Fog/Mist FEW022 BKN027 OVC033 36 32     85%         0    
Nov 17 03:21   4 Light Snow and Fog/Mist FEW016 BKN022 BKN028 35 32     88%         0    
Nov 17 02:53 SSW 18 5 Light Snow BKN023 BKN031 OVC042 37 29     72% 27     29.82 0    
Nov 17 02:00 SSW 11 8 Light Rain BKN029 OVC036 39 32     76% 32       0    
Nov 17 01:53 SSW 10 7 Light Rain BKN032 OVC046 39 32     76% 32     29.8 0    
Nov 17 00:53 S 14 10 Cloudy FEW025 BKN030 OVC037 38 33     82% 30     29.81 0 0  
Nov 17 00:44 S 10 8 Light Rain FEW025 OVC033 37 34     89% 30       0    
Nov 16 23:53 S 10 5 Light Rain and Fog/Mist OVC022 36 33     89% 29     29.82 0    
Nov 16 23:48 S 9 5 Light Rain and Fog/Mist OVC020 36 34     93% 29       0    
Nov 16 23:39 S 11 4 Light Rain and Fog/Mist OVC020 36 33     89% 28       0    
Nov 16 23:16 S 9 5 Rain and Fog/Mist OVC020 36 33     89% 29       0    
Nov 16 23:05   3 Light Rain and Fog/Mist BKN023 OVC027 36 33     89%         0    
Nov 16 22:53 S 9 5 Light Rain and Fog/Mist BKN023 OVC034 36 33     89% 29     29.8 0    
Nov 16 22:33 SSW 11 4 Light Rain and Fog/Mist FEW022 OVC027 37 34     89% 29       0    
Nov 16 22:19 SSW 10 8 Light Rain SCT027 OVC037 37 34     89% 30       0    
Nov 16 22:10 S 8 7 Light Rain FEW023 BKN029 OVC040 37 34     89% 31       0    
Nov 16 22:00 S 9 7 Light Rain SCT027 OVC032 37 33     85% 30       0    
Nov 16 21:53 SSW 7 5 Light Rain and Fog/Mist BKN028 OVC034 36 34     92% 30     29.8 0   0
Nov 16 21:50 SSW 8 5 Light Rain and Fog/Mist OVC028 36 34     93% 29       0    
Nov 16 21:36 SSW 9 4 Rain and Fog/Mist OVC026 37 33     85% 30       0    
Nov 16 21:13 5 5 Light Rain and Fog/Mist FEW021 OVC028 36 33     89% 32       0    
Nov 16 21:09 SSW 9 4 Light Rain and Fog/Mist FEW020 OVC030 36 33     89% 29       0    
Nov 16 20:53 SSW 7 8 Light Rain FEW022 OVC032 36 33     89% 30     29.8 0    
Nov 16 20:50 6 8 Light Rain FEW022 OVC032 36 34     93% 31       0    
Nov 16 20:33 5 5 Light Rain and Fog/Mist FEW008 BKN022 OVC034 35 33     92% 31       0    
Nov 16 20:28 SSW 5 3 Light Rain and Fog/Mist FEW008 OVC014 35 33     92% 31       0    
Nov 16 20:16 S 6 2.5 Light Snow and Fog/Mist FEW010 OVC014 35 33     92% 30       0    
Nov 16 20:01 Calm 4 Light Rain and Fog/Mist FEW009 OVC018 36 34     92%         0    
Nov 16 19:53 S 6 5 Light Rain and Fog/Mist OVC018 36 33     89% 31     29.8 0    
Nov 16 18:53 SSW 8 4 Rain and Fog/Mist FEW014 OVC022 38 35     89% 32     29.77 0 0  
Nov 16 18:17 S 9 4 Rain BKN023 OVC030 41 36     82% 35       0    
Nov 16 18:06 SSW 9 5 Light Rain FEW024 OVC032 43 38     82% 38       0    
Nov 16 17:53 SSW 14 3 Rain and Fog/Mist FEW025 OVC029 42 38     85% 35     29.72 0    
Nov 16 17:49 SSW 10 4 Light Rain BKN027 OVC033 43 37     81% 37       0    
Nov 16 17:26 SSW 14 5 Light Rain and Fog/Mist SCT026 OVC032 42 38     85% 35       0    
Nov 16 16:53   4 Light Rain and Fog/Mist FEW021 OVC027 41 38     89%       29.73 0    
Nov 16 16:29 SSW 9 4 Light Rain and Fog/Mist FEW019 OVC025 40 37     89% 34       0    
Nov 16 16:03 S 11 2.5 Rain and Fog/Mist BKN024 OVC029 40 36     86% 33       0    
Nov 16 15:53 S 13 3 Rain and Fog/Mist OVC024 40 36     86% 32     29.75 0   1
Nov 16 15:43   4 Rain and Fog/Mist OVC022 40 36     86%         0    
Nov 16 14:53 SSW 15 2.5 Rain BKN029 OVC034 44 39     82% 37     29.74 0    
Nov 16 14:47 S 10 2.5 Rain FEW021 BKN029 OVC034 45 39     81% 39       0    
Nov 16 14:35 SSW 10 4 Light Rain FEW024 OVC031 45 39     80% 40       0    
Nov 16 14:28 S 10 2.5 Rain and Fog/Mist FEW022 BKN031 OVC035 44 40     85% 39       0    
Nov 16 14:19 SSW 9 1.75 Rain and Fog/Mist BKN030 OVC035 44 40     85% 39       0    
Nov 16 14:03 S 13 2 Rain BKN028 OVC035 45 40     82% 39       0    
Nov 16 13:53   3 Rain FEW025 OVC031 45 39     80%       29.73 0    
Nov 16 13:38 SSW 15 3 Rain FEW024 BKN033 OVC055 45 39     80% 38       0    
Nov 16 13:34   2 Rain FEW022 BKN029 OVC055 45 39     80%         0    
Nov 16 13:24   2.5 Rain and Fog/Mist FEW022 BKN031 OVC080 44 40     85%         0    
Nov 16 13:08   5 Light Rain FEW019 BKN030 OVC080 45 39     80%         0    
Nov 16 12:53   2 Rain FEW019 BKN027 OVC032 44 39     82%       29.74 0 0  
Nov 16 12:51   1.75 Rain BKN027 OVC032 45 39     81%         0    
Nov 16 12:42 SSW 7 2 Rain and Fog/Mist SCT023 BKN029 OVC034 43 39     86% 39       0    
Nov 16 12:22 SW 9 3 Rain and Fog/Mist FEW021 BKN030 OVC037 43 39     86% 38       0    
Nov 16 12:06 S 10 2 Rain and Fog/Mist FEW020 OVC026 43 39     86% 37       0    
Nov 16 11:53 SSW 6 4 Light Rain and Fog/Mist FEW023 BKN028 OVC036 42 39     89% 38     29.76 0    
Nov 16 11:51 S 10 4 Light Rain and Fog/Mist FEW023 BKN028 OVC038 43 39     87% 37       0    
Nov 16 11:29 SSW 10 2.5 Rain and Fog/Mist BKN028 BKN033 OVC040 43 39     86% 37       0    
Nov 16 11:14   4 Light Rain BKN030 OVC040 44 39     82%         0    
Nov 16 11:01 SSW 15 5 Light Rain BKN030 OVC042 44 39     82% 37       0    
Nov 16 10:53 S 13 3 Rain and Fog/Mist OVC028 43 39     86% 36     29.8 0    
Nov 16 10:32 SSW 8 2.5 Rain and Fog/Mist BKN028 OVC035 42 38     85% 37       0    
Nov 16 10:21 SSW 9 1.5 Rain and Fog/Mist OVC026 42 38     85% 37       0    
Nov 16 09:53 S 8 2 Rain and Fog/Mist BKN024 OVC030 39 37     93% 33     29.8 0   1
Nov 16 09:38   1.5 Heavy Rain and Fog/Mist OVC022 39 36     89%         0    
Nov 16 08:53 S 10 2 Rain and Fog/Mist BKN024 OVC031 40 37     89% 33     29.8 0    
Nov 16 07:53   2.5 Heavy Rain BKN025 OVC030 43 38     82%       29.79 0    
Nov 16 07:28 S 13 3 Heavy Rain OVC028 44 39     82% 38       0    
Nov 16 07:14   4 Rain FEW024 OVC030 44 39     82%         0    
Nov 16 07:00   4 Rain OVC029 44 39     82%         0    
Nov 16 06:53   4 Rain FEW026 OVC031 44 39     82%       29.74 0 1  
Nov 16 06:41 SW 8 4 Rain BKN029 OVC034 44 39     82% 40       0    
Nov 16 06:28   5 Light Rain FEW025 OVC032 44 39     82%         0    
Nov 16 06:25   4 Rain and Fog/Mist BKN029 OVC035 43 39     86%         0    
Nov 16 06:12   5 Light Rain FEW026 BKN030 OVC036 43 38     82%         0    
Nov 16 05:53 SW 8 4 Rain FEW023 OVC029 44 39     82% 40     29.74 0    
Nov 16 05:09 S 11 3 Rain and Fog/Mist OVC025 40 37     89% 33       0    
Nov 16 04:53 S 11 2 Heavy Rain and Fog/Mist OVC021 40 36     86% 33     29.75 0    
Nov 16 03:53 S 13 4 Rain and Fog/Mist OVC019 39 35     86% 31     29.77 0   1
Nov 16 02:53 S 11 4 Rain and Fog/Mist OVC022 39 36     89% 32     29.8 0    
Nov 16 01:53 SSE 7 4 Rain and Fog/Mist OVC025 38 36     92% 33     29.81 0    
Nov 16 01:39 S 8 3 Rain and Fog/Mist OVC023 39 36     89% 33       0    
Nov 16 01:28 SSW 9 2 Heavy Rain and Fog/Mist OVC021 40 36     86% 34       0    
Nov 16 00:53 S 14 4 Rain and Fog/Mist OVC020 40 36     86% 32     29.82 0 1  
Nov 15 23:53 SSW 16 3 Rain and Fog/Mist OVC020 39 36     89% 30     29.86 0    
Nov 15 18:53 SSW 16 9 Rain SCT030 BKN041 OVC049 42 36     79% 34     29.88 0 0  
Nov 15 18:02 SSW 20 5 Light Rain FEW015 OVC032 42 36     79% 33       0    
Nov 15 17:53 SSW 18 4 Rain FEW026 OVC032 42 36     79% 34     29.91 0    
Nov 15 17:40   6 Light Rain FEW027 OVC034 42 37     82%         0    
Nov 15 17:33   4 Rain FEW025 OVC032 43 37     79%         0    
Nov 15 17:19 SSW 14 4 Rain FEW015 OVC028 43 38     82% 36       0    
Nov 15 17:05 SSW 15 5 Rain FEW017 FEW024 OVC033 44 39     82% 37       0    
Nov 15 16:53 SSW 11 3 Rain FEW025 OVC033 44 39     82% 38     29.88 0    
Nov 15 16:49 SSW 15 3 Heavy Rain FEW024 OVC033 45 39     81% 38       0    
Nov 15 16:40   5 Rain SCT024 OVC034 45 39     80%         0    
Nov 15 16:32   5 Rain FEW021 BKN028 OVC032 45 39     80%         0    
Nov 15 16:27 SSW 13 4 Rain FEW025 OVC034 45 39     80% 39       0    
Nov 15 16:20   2.5 Light Rain FEW021 OVC032 44 39     82%         0    
Nov 15 15:53   3 Light Rain FEW025 OVC032 46 39     76%       29.88 0   0
Nov 15 15:49 SSW 16 2.5 Rain FEW023 BKN030 OVC036 45 39     81% 37       0    
Nov 15 15:33 SSW 17 3 Light Rain FEW023 SCT030 OVC034 46 40     79% 39       0    
Nov 15 15:09 SW 16 6 Light Rain SCT025 BKN033 OVC049 46 40     79% 39       0    
Nov 15 14:57 SSW 20 4 Rain SCT026 BKN033 OVC050 47 40     76% 40       0    
Nov 15 14:53   5 Light Rain BKN028 BKN037 OVC050 46 40     79%       29.89 0    
Nov 15 13:53   10 Light Rain SCT029 BKN038 OVC060 48 39     71%       29.9 0    
Nov 15 13:05   5 Light Rain SCT026 BKN039 OVC047 47 40     76%         0    
Nov 15 12:53   3 Light Rain SCT031 BKN040 OVC060 46 41     82%       29.91 0 0  
Nov 15 12:27   10 Light Rain FEW029 BKN047 OVC055 47 40     76%         0    
Nov 15 12:08   3 Light Rain SCT027 BKN034 OVC050 46 40     79%         0    
Nov 15 11:53 SSW 15 2.5 Rain SCT028 BKN035 OVC043 45 40     82% 38     29.95 0    
Nov 15 11:51 S 13 2.5 Rain SCT028 BKN035 OVC043 45 39     81% 38       0    
Nov 15 11:46 SSW 13 4 Rain BKN028 BKN035 OVC055 46 40     79% 40       0    
Nov 15 11:14 SSW 18 5 Light Rain FEW025 BKN034 OVC046 45 40     82% 37       0    
Nov 15 10:53 SSW 15 4 Rain FEW030 BKN038 OVC046 44 39     82% 37     29.98 0    
Nov 15 10:21   3 Rain SCT036 BKN044 OVC055 44 38     79%         0    
Nov 15 10:11 SSW 16 2 Rain BKN035 BKN043 OVC055 44 38     79% 37       0    
Nov 15 10:01 SSW 14 3 Rain and Fog/Mist BKN037 BKN047 OVC055 43 39     86% 36       0    
Nov 15 09:53   2.5 Light Rain and Fog/Mist BKN037 OVC050 43 39     86%       29.99 0   0
Nov 15 09:30 SSW 11 2 Rain SCT037 OVC047 43 38     82% 37       0    
Nov 15 08:53 SSW 7 4 Light Rain FEW030 OVC046 45 39     80% 41     30.02 0    
Nov 15 08:20 7 6 Light Rain FEW024 BKN037 OVC049 44 38     79% 40       0    
Nov 15 07:53 Calm 4 Light Rain and Fog/Mist SCT026 BKN036 OVC050 42 38     85%       30.03 0    
Nov 15 07:37 Calm 3 Light Rain and Fog/Mist SCT028 BKN040 OVC048 41 37     86%         0    
Nov 15 07:00 SSE 10 6 Light Rain SCT028 BKN046 OVC060 38 33     82% 31       0    
Nov 15 06:53 S 9 5 Light Rain FEW017 BKN027 OVC044 37 32     82% 30     30.05 0 0  
Nov 15 06:44 SSE 9 6 Light Rain SCT017 BKN027 OVC042 36 31     82% 29       0    
Nov 15 06:34 SSE 11 3 Light Snow BKN017 BKN026 OVC033 35 30     82% 27       0    
Nov 15 06:12 SSE 8 1.75 Light Snow FEW019 BKN027 OVC040 35 29     78% 29       0    
Nov 15 06:10 S 13 2.5 Light Snow FEW022 BKN033 OVC041 35 29     78% 26       0    
Nov 15 05:53 S 9 10 Light Rain SCT039 BKN055 OVC080 39 23     52% 33     30.07 0    
Nov 15 04:53 SSE 9 10 Mostly Cloudy SCT055 BKN075 45 9     23% 40     30      
Nov 15 03:53 S 10 10 Partly Cloudy SCT047 46 18     32% 41     29.98      
Nov 15 02:53 Calm 10 Cloudy OVC050 46 15     28%       30      
Nov 15 01:53 SSE 9 10 Cloudy OVC060 45 9     23% 40     30.02      
Nov 15 00:53 S 13 10 Mostly Clear FEW065 46 7     20% 40     30.03      
Nov 14 23:53 S 10 10 Clear CLR 44 5     20% 39     30.05      
Jun 11 19:53 3 10 Clear   35 30     82% 32     29.86 0 0  
Jun 11 18:53 S 9 10 Mostly Cloudy FEW035 BKN045 BKN055 38 26     62% 31     29.84 0    
Jun 11 17:53 S 14 10 Cloudy BKN025 BKN030 OVC045 38 29     70% 30   29.9 29.84 0    
Jun 11 09:53 S 15 10 Mostly Cloudy BKN045 BKN055 46 27     47% 40     29.71      
Jun 10 20:53 S 11 10 Mostly Cloudy SCT029 BKN037 45 33     63% 39     29.79      
Jun 10 16:53 S 18 10 Clear CLR 54 26     34%       29.79      
Jun 09 11:53   5 Light Rain SCT030 BKN037 OVC048 53 48     83%       29.83 0    
Jun 09 09:53   10 Mostly Cloudy SCT036 BKN045 54 40     59%       29.83      
Jun 08 04:53   10 Partly Cloudy SCT110 53 28     38%       29.83      
Jun 07 22:53 SSW 3 10 Clear CLR 54 27     35%       29.9      
Jun 07 09:53   10 Clear CLR 66 37     34%       29.93      
Jun 05 19:53 Calm 10 Clear   61 38     42%       30